User: anonymous   Login
Location: Kopernik Observatory
(42.0014°N, 76.0372°W)
Time: 22:17:15
(UTC-04:00)
Language:

CENTAUR R/B - Orbit

View from above orbital plane
View from above orbital plane
View from above satellite
View from above satellite

Ground track
Ground track

The orbit data is extracted from the following two-line orbital elements,

1 26906U 01040B   15212.10389283 0.00000000  00000-0  00000-0 0    06
2 26906  63.4635 293.7285 0294500 344.3298  15.6702 13.43940374    00
Epoch (UTC): 31 July 2015 02:29:36
Eccentricity: 0.0294500
inclination: 63.4635°
perigee height: 874 km
apogee height: 1315 km
right ascension of ascending node: 293.7285°
argument of perigee: 344.3298°
revolutions per day: 13.43940374
mean anomaly at epoch: 15.6702°
orbit number at epoch: 0

The dashed part of the orbit path shows where the satellite is in the earth's shadow,  

DLR